Погода в Ниде

Литва     55°18′24″N   20°59′34″E
темп.,
°C
ветер,
м/с
пор.,
м/с
влажн.,
%
обл.,
%
осадки,
мм/ч
давл.,
гПа
погр.,
м
21 июня, пн
пн2100:00+23юв711800 0.0 1013129
03:00+19ююв67880 0.2 101263
06:00+19ююв799287 0.0 101187
09:00+20юв56905 0.0 101249
12:00+21юв44795 0.0 101214
15:00+22ююв44735 0.0 101115
18:00+23юв44691 0.0 101013
21:00+24юв55750 0.0 101020
22 июня, вт
вт2200:00+22юв44860 0.4 101024
03:00+19юв67890 0.5 100954
06:00+19юв5692100 0.0 100946
09:00+19ююв448875 0.0 101027
12:00+20юз338813 0.1 101113
15:00+18з569212 0.1 101289
18:00+18зсз5693100 0.1 1013150
21:00+18сз578967 0.1 1013203
23 июня, ср
ср2300:00+17ссз5687100 1.2 1014152
03:00+17сз458172 2.1 1015122
06:00+17с4583100 1.3 1014130
09:00+17зсз4587100 3.3 1016202
12:00+17зсз348624 0.6 1017289
15:00+17зсз348110 0.6 1018195
18:00+18з237830 0.0 1018129
21:00+18зсз448191 0.0 101893
24 июня, чт
чт2400:00+17сз338789 0.0 101849
03:00+17зсз23905 0.0 101969
06:00+17сз11890 0.0 101812
09:00+17з11870 0.0 101918
12:00+18зсз22825 0.0 101965
15:00+19ссз22785 0.0 101868
18:00+19с44771 0.0 101789
21:00+19с56800 0.0 101681
25 июня, пт
пт2500:00+18ссв45820 0.0 101651
03:00+19в338295 0.0 101514
06:00+18всв4496100 0.0 101338
09:00+19в5794100 0.5 101256
12:00+19ю019741 9.1 101111
15:00+20ю338699 10.7 101116
18:00+19зюз711958 0.0 1011191
21:00+18зсз5696100 0.0 1011170